Rbgn^[z[y[W
メイン
   新天体発見情報
     omet P/2017 G1 (PANSTARRS)
投稿するにはまず登録を

スレッド表示 | 新しいものから 前のトピック | 次のトピック | 下へ
投稿者 スレッド
佐藤裕久
投稿日時: 2017-4-20 2:59
モデレータ
登録日: 2005-6-12
居住地: 日本
投稿: 1792
オンライン
omet P/2017 G1 (PANSTARRS)

R. WerykとE. Lilly (ハワイ大学天文学研究所)の通報によると、4月1.5日UT、Haleakalaにある
1.8-m Pan-STARRS1望遠鏡で得た画像に彗星を発見した。3月25日に得た発見前の画像も確認された。
北東に向かって約5"伸びた尾らしいものがある。
M. Micheliと R. J. Wainscoatによると、4月2.3日UT、Wainscoatと D. Woodworthが、Mauna Kea
にある3.6-m Canada-France-Hawaii Telescopeで得た3枚の60秒gri-フィルター確認露出では、拡散し、
東に伸びた尾のようなもの見える。

発見位置は次のとおり、

     2017 UT             R.A. (2000) Decl.       Mag.
     2017 UT             R.A. (2000) Decl.       Mag.
     Mar. 25.42796   12 46 15.60   - 9 48 50.2   21.4
          25.44006   12 46 15.14   - 9 48 47.5   22.0
          25.45218   12 46 14.68   - 9 48 44.6   22.7
          25.46431   12 46 14.27   - 9 48 41.3   21.5
     Apr.  1.45654   12 42 06.85   - 9 20 44.2   22.0
           1.46683   12 42 06.52   - 9 20 41.6   21.8
           1.47712   12 42 06.13   - 9 20 39.1   21.8

暫定楕円軌道要素と位置推算表は次のとおり、

Orbital elements:
    P/2017 G1 (PANSTARRS)
Epoch 2016 May 12.0 TT = JDT 2457520.5
T 2016 May 11.95917 TT                                  MPCW
q   2.6196929            (2000.0)            P               Q
n   0.04612082     Peri.  218.15856     -0.46144734     -0.88509075
a   7.7008392      Node   259.39679     +0.82837719     -0.40537984
e   0.6598172      Incl.    3.53871     +0.31758083     -0.22865159
P  21.37
From 22 observations 2017 Mar. 25-Apr. 5, mean residual 0".2.

    P/2017 G1 (PANSTARRS)
Epoch 2035 Dec. 19.0 TT = JDT 2464680.5
T 2035 Dec. 17.50474 TT                                 MPCW
q   2.4786313            (2000.0)            P               Q
n   0.05183725     Peri.  228.07566     -0.41970295     -0.90418408
a   7.1237406      Node   246.90143     +0.85621652     -0.36537452
e   0.6520604      Incl.    4.95046     +0.30123530     -0.22125238
P  19.01
From 22 observations 2017 Mar. 25-Apr. 5, mean residual 0".2.

    P/2017 G1 (PANSTARRS)
Epoch 2017 Feb. 16.0 TT = JDT 2457800.5
T 2016 May 12.16462 TT                                  MPCW
q   2.6197284            (2000.0)            P               Q
n   0.04585844     Peri.  218.28814     -0.46200119     -0.88480290
a   7.7301846      Node   259.30321     +0.82815223     -0.40592621
e   0.6611040      Incl.    3.53884     +0.31736223     -0.22879628
P  21.49
From 22 observations 2017 Mar. 25-Apr. 5, mean residual 0".2.

Ephemeris:
    P/2017 G1 (PANSTARRS)
Date    TT    R. A. (2000) Decl.     Delta      r     Elong.  Phase   m1
2017 03 07    12 56 09.6 -10 48 15   2.7051  3.5921   149.0     8.2  21.2
...
2017 03 22    12 48 15.6 -10 01 44   2.6966  3.6701   165.6     3.9  21.3
...
2017 03 30    12 43 33.7 -09 30 43   2.7179  3.7121   173.7     1.7  21.4
...
2017 04 05    12 40 03.5 -09 06 05   2.7462  3.7438   175.0     1.3  21.4
2017 04 06    12 39 29.2 -09 01 57   2.7520  3.7491   174.4     1.5  21.4
2017 04 07    12 38 55.1 -08 57 48   2.7580  3.7544   173.6     1.7  21.4
...
2017 04 13    12 35 38.8 -08 33 05   2.8004  3.7862   167.8     3.2  21.5
...
2017 04 21    12 31 45.3 -08 01 35   2.8728  3.8288   159.2     5.3  21.6
...
2017 05 06    12 26 30.3 -07 12 08   3.0535  3.9092   143.3     8.9  21.8

(CBET 4382、MPEC 2017-G56)
スレッド表示 | 新しいものから 前のトピック | 次のトピック | トップ

投稿するにはまず登録を
 
© 1999-2013 Tsutomu Seki.